Orbital elements of COSMOS 332
| Launched | 10 April 1970 |
| Flight ended | – |
| Launch site | Plesetsk Missile and Space Complex, Russia |
| Owner | Commonwealth of Independent States (former USSR) |
| NORAD ID | 4369 |
| Date fetched |
Epoch osculation |
Inc. [°] |
Ecc. | RA asc node [hr] |
Arg Peri. [°] |
Mean anom [°] |
Mean motion [rev/day] |
Abs. mag |
| Date fetched |
Epoch osculation |
Inc. [°] |
Ecc. | RA asc node [hr] |
Arg Peri. [°] |
Mean anom [°] |
Mean motion [rev/day] |
Abs. mag |
| 2026 May 06 17:57 | 2026 May 05 07:47:00 | 74.0367 | 0.00065 | 23.0439 | 225.0049 | 135.0585 | 14.53175 | 7.243 |
| 2026 May 05 17:57 | 2026 May 05 07:47:00 | 74.0367 | 0.00065 | 23.0439 | 225.0049 | 135.0585 | 14.53175 | 7.243 |
| 2026 May 04 17:57 | 2026 Apr 30 15:25:54 | 74.0374 | 0.00067 | 23.6329 | 233.5680 | 135.0585 | 14.53175 | 7.243 |
| 2026 May 03 17:57 | 2026 Apr 30 15:25:54 | 74.0374 | 0.00067 | 23.6329 | 233.5680 | 135.0585 | 14.53175 | 7.243 |
| 2026 May 02 17:57 | 2026 Apr 30 15:25:54 | 74.0374 | 0.00067 | 23.6329 | 233.5680 | 135.0585 | 14.53175 | 7.243 |
| 2026 May 01 17:56 | 2026 Apr 30 15:25:54 | 74.0374 | 0.00067 | 23.6329 | 233.5680 | 135.0585 | 14.53175 | 7.243 |
| 2026 Apr 30 17:56 | 2026 Apr 30 15:25:54 | 74.0374 | 0.00067 | 23.6329 | 233.5680 | 135.0585 | 14.53175 | 7.243 |
| 2026 Apr 29 17:57 | 2026 Apr 24 04:07:17 | 74.0379 | 0.00068 | 0.4471 | 245.5160 | 135.0585 | 14.53175 | 7.243 |
| 2026 Apr 28 17:56 | 2026 Apr 24 04:07:17 | 74.0379 | 0.00068 | 0.4471 | 245.5160 | 135.0585 | 14.53175 | 7.243 |
| 2026 Apr 27 17:58 | 2026 Apr 24 04:07:17 | 74.0379 | 0.00068 | 0.4471 | 245.5160 | 135.0585 | 14.53175 | 7.243 |
| 2026 Apr 26 17:58 | 2026 Apr 24 04:07:17 | 74.0379 | 0.00068 | 0.4471 | 245.5160 | 135.0585 | 14.53175 | 7.243 |
| 2026 Apr 25 17:58 | 2026 Apr 24 04:07:17 | 74.0379 | 0.00068 | 0.4471 | 245.5160 | 135.0585 | 14.53175 | 7.243 |
| 2026 Apr 24 17:59 | 2026 Apr 24 04:07:17 | 74.0379 | 0.00068 | 0.4471 | 245.5160 | 135.0585 | 14.53175 | 7.243 |
| 2026 Apr 23 17:57 | 2026 Apr 19 11:46:09 | 74.0381 | 0.00069 | 1.0361 | 253.8606 | 135.0585 | 14.53175 | 7.243 |
| 2026 Apr 22 17:57 | 2026 Apr 19 11:46:09 | 74.0381 | 0.00069 | 1.0361 | 253.8606 | 135.0585 | 14.53175 | 7.243 |
| 2026 Apr 21 17:57 | 2026 Apr 19 11:46:09 | 74.0381 | 0.00069 | 1.0361 | 253.8606 | 135.0585 | 14.53175 | 7.243 |
| 2026 Apr 20 17:57 | 2026 Apr 19 11:46:09 | 74.0381 | 0.00069 | 1.0361 | 253.8606 | 135.0585 | 14.53175 | 7.243 |
| 2026 Apr 19 17:58 | 2026 Apr 19 11:46:09 | 74.0381 | 0.00069 | 1.0361 | 253.8606 | 135.0585 | 14.53175 | 7.243 |
| 2026 Apr 18 17:56 | 2026 Apr 13 05:24:55 | 74.0379 | 0.00070 | 1.8243 | 265.0256 | 135.0585 | 14.53175 | 7.243 |
| 2026 Apr 16 17:57 | 2026 Apr 13 05:24:55 | 74.0379 | 0.00070 | 1.8243 | 265.0256 | 135.0585 | 14.53175 | 7.243 |
| 2026 Apr 14 17:57 | 2026 Apr 13 05:24:55 | 74.0379 | 0.00070 | 1.8243 | 265.0256 | 135.0585 | 14.53175 | 7.243 |
| 2026 Apr 13 17:57 | 2026 Apr 13 05:24:55 | 74.0379 | 0.00070 | 1.8243 | 265.0256 | 135.0585 | 14.53175 | 7.243 |
| 2026 Apr 12 17:57 | 2026 Apr 08 13:03:46 | 74.0376 | 0.00070 | 2.4133 | 273.3811 | 135.0585 | 14.53175 | 7.243 |
| 2026 Apr 11 17:57 | 2026 Apr 08 13:03:46 | 74.0376 | 0.00070 | 2.4133 | 273.3811 | 135.0585 | 14.53175 | 7.243 |
| 2026 Apr 10 17:58 | 2026 Apr 08 13:03:46 | 74.0376 | 0.00070 | 2.4133 | 273.3811 | 135.0585 | 14.53175 | 7.243 |
| 2026 Apr 09 18:01 | 2026 Apr 08 13:03:46 | 74.0376 | 0.00070 | 2.4133 | 273.3811 | 135.0585 | 14.53175 | 7.243 |